Regional Weather Roundup
Issued by NWS

Home | Current Version | Previous Version | Graphics & Text | Print | Product List | Glossary Off
Versions: 1 2 3 4 5 6 7 8 9 10 11 12 13 14 15 16 17 18 19 20 21 22 23 24 25 26 27 28 29 30 31 32 33 34 35 36 37 38 39 40 41 42 43 44 45 46 47 48 49 50

477
ASUS43 KDTX 081510
RWRMI
MICHIGAN HOURLY REGIONAL WEATHER ROUNDUP
NATIONAL WEATHER SERVICE DETROIT/PONTIAC MI
1000 AM EST MON FEB 08 2016

NOTE: "FAIR" INDICATES FEW OR NO CLOUDS BELOW 12,000 FEET WITH NO
SIGNIFICANT WEATHER AND/OR OBSTRUCTION TO VISIBILITY.

MIZ047>049-052>055-059>063-066>070-074>076-081>083-081600-
SOUTHEAST LOWER MICHIGAN

CITY           SKY/WX    TMP DP  RH WIND       PRES   REMARKS
ADRIAN         CLOUDY    33  29  85 NW6       29.62F WCI  28
ALMA           SUNNY     32  32  99 W5        29.62S WCI  28
ANN ARBOR      CLOUDY    35  30  82 W7        29.60F WCI  29
BAD AXE        CLOUDY    37  32  84 W3        29.62R
CARO           PTSUNNY   36  32  87 CALM      29.61S
DETROIT CITY   PTSUNNY   39  31  72 W6        29.61F WCI  35
DETROIT        CLOUDY    37  30  75 W6        29.61F WCI  32
FLINT            N/A     37  29  72 W8        29.62S WCI  31
GROSSE ILE     CLOUDY    37  32  81 CALM      29.60F
HILLSDALE      CLOUDY    32  29  87 W5        29.60F WCI  28
HOWELL         CLOUDY    34  32  92 W6        29.61S WCI  29

CITY           SKY/WX    TMP DP  RH WIND       PRES   REMARKS
JACKSON        CLOUDY    33  28  81 W6        29.61S WCI  28
LAMBERTVILLE   CLOUDY    35  31  85 W7        29.62S WCI  29
LANSING        MOSUNNY   33  29  85 W7        29.62S WCI  27
LAPEER         CLOUDY    35  31  85 W3        29.61S
MASON          CLOUDY    33  30  88 W3        29.62S
MONROE         CLOUDY    35  31  85 W5        29.61F WCI  31
MT. CLEMENS    PTSUNNY   39  34  81 W7        29.59F WCI  34
PONTIAC        CLOUDY    34  29  82 W6        29.60S WCI  29
PORT HOPE        N/A     39  32  76 CALM      29.59F
PORT HURON     LGT RAIN  37  36  93 CALM      29.61F
TRI CITIES     MOSUNNY   36  31  82 SW6       29.62S WCI  31
MIDLAND        FAIR      35  31  85 W3        29.61S
TROY           CLOUDY    38  30  72 NW6       29.62F WCI  33
SAGINAW HB     MOSUNNY   36  32  87 SW6       29.61S WCI  31
$$
MIZ043>046-050>051-056>058-064>065-071>073-077>080-081600-
SOUTHWEST LOWER MICHIGAN

CITY           SKY/WX    TMP DP  RH WIND       PRES   REMARKS
BATTLE CREEK   CLOUDY    31  28  89 SW3       29.62S
BENTON HARBOR  CLOUDY    33  30  88 SW7       29.63R WCI  27
BIG RAPIDS     SUNNY     33  32  94 CALM      29.59S
COLDWATER      MOSUNNY   33  29  88 SW5       29.62S WCI  28
FREMONT        CLOUDY    32  32  99 CALM      29.60S
HOLLAND        PTSUNNY   33  31  92 CALM      29.62S
GRAND RAPIDS   PTSUNNY   33  30  88 S8        29.61F WCI  26
IONIA          FAIR      33  31  92 SW5       29.60F WCI  29
KALAMAZOO      MOSUNNY   32  27  81 W3        29.62F
LUDINGTON      PTSUNNY   32  31  94 SE5       29.60S WCI  27
MARSHALL       PTSUNNY   32  29  90 SW5       29.61F WCI  27
MOUNT PLEASANT MOSUNNY   34  31  89 W3        29.60S
MUSKEGON       CLOUDY    35  30  82 SE5       29.61S WCI  31
SOUTH HAVEN    CLOUDY    32  31  94 S3        29.62S
$$
MIZ016>042-081600-
NORTHERN LOWER MICHIGAN

CITY           SKY/WX    TMP DP  RH WIND       PRES   REMARKS
ALPENA         PTSUNNY   33  29  85 CALM      29.60S
BEAVER ISLAND  PTSUNNY   35  34  97 CALM      29.59R FOG
BELLAIRE       PTSUNNY   29  28  96 CALM      29.60S FOG
CADILLAC       CLOUDY    31  29  94 SW5       29.57R WCI  26
CHARLEVOIX     SUNNY     33  32  95 CALM      29.61F
FRANKFORT      CLOUDY    34  31  90 SE3       29.59R
GAYLORD        FOG       29  28  96 CALM      29.57S VSB<1/4
GRAYLING       FOG      N/A N/A N/A CALM      29.59R VSB<1/4
HARBOR SPRINGS SUNNY     33  30  86 CALM      29.59S
HOUGHTON LAKE  FOG       26  25  96 CALM      29.58S VSB<1/4
MANISTEE       CLOUDY    30  27  86 CALM      29.60S
OSCODA         CLOUDY    33  32  96 CALM      29.60R
PELLSTON       FOG       26  25  96 CALM      29.60S VSB<1/4
ROGERS CITY    CLOUDY    33  30  88 SW3       29.60S
TRAVERSE CITY  PTSUNNY   33  28  81 E5        29.58S WCI  29
$$
MIZ007>008-015-081600-
EASTERN UPPER MICHIGAN

CITY           SKY/WX    TMP DP  RH WIND       PRES   REMARKS
KINROSS        PTSUNNY   36  36 100 CALM      29.60R
MACKINAC ISLAN SUNNY     32  32 100 S5        29.59S WCI  27
NEWBERRY       CLOUDY    33  32  96 SE6       29.58R FOG     WCI  27
S. S. MARIE    FOG       34  32  92 E5        29.60S VSB 3/4 WCI  30
MUNISING         N/A     29  25  85 NW16G26   29.62R WCI  17
$$
MIZ004>006-011>014-085-081600-
CENTRAL UPPER MICHIGAN

CITY           SKY/WX    TMP DP  RH WIND       PRES   REMARKS
MANISTIQUE     CLOUDY    33  32  94 NW9       29.59R WCI  26
ESCANABA       CLOUDY    32  28  86 N12       29.61R WCI  23
MENOMINEE      CLOUDY    34  28  80 N5        29.59R WCI  30
SAWYER-GWINN   CLOUDY    23  21  93 N12       29.61R WCI  12
$$
MIZ001>003-009>011-084-081600-
WESTERN UPPER MICHIGAN

CITY           SKY/WX    TMP DP  RH WIND       PRES   REMARKS
IRON MOUNTAIN  LGT SNOW  26  20  77 N15       29.60R WCI  14
HOUGHTON       LGT SNOW  15  10  80 N15G23    29.69R WCI   0
COPPER HARBOR    N/A     21  17  84 N23       29.69R WCI   5
IRONWOOD       CLOUDY    18  16  93 NW13      29.71R WCI   4
$$

ABBREVIATIONS USED IN REMARKS
   TC - TEMPERATURE IN CELSIUS
  WCI - WIND CHILL INDEX
   HX - HEAT INDEX
  VSB - VISIBILITY





USA.gov is the U.S. government's official web portal to all federal, state and local government web resources and services.